Regional Weather Roundup
Issued by NWS Goodland, KS

Home | Current Version | Previous Version | Text Only | Print | Product List | Glossary Off
Versions: 1 2 3 4 5 6 7 8 9 10 11 12 13 14 15 16 17 18 19 20 21 22 23 24 25 26 27 28 29 30 31 32 33 34 35 36 37 38 39 40 41 42 43 44 45 46 47 48 49 50

000
ASUS43 KGLD 260108
RWRGLD

GOODLAND FORECAST AREA HOURLY WEATHER ROUNDUP
NATIONAL WEATHER SERVICE GOODLAND KS
600 PM MST THU DEC 25 2014

...OFFICIAL OBSERVATIONS...

CITY           SKY/WX    TMP DP  RH WIND       PRES   REMARKS
GOODLAND KS    CLEAR     31  27  85 N17       29.62R WCI  19
HILL CITY KS   MOCLDY    37  25  61 N15       29.60R
IMPERIAL NEB   CLOUDY    31  25  78 NE21      29.68R WCI  18
MCCOOK NEB     CLEAR     31  26  82 N17       29.65R WCI  19
AKRON CO       CLOUDY    27  25  92 N22       29.67R WCI  13
BURLINGTON CO  CLEAR     31  25  78 N16       29.61R WCI  20
LIMON CO       CLOUDY    28  26  92 N17       29.65R WCI  16
$$

...UNOFFICIAL OBSERVATIONS...

CITY           SKY/WX    TMP DP  RH WIND       PRES   REMARKS
COLBY KS       CLEAR     34  30  86 N18       29.62R
GOVE KS          N/A     36  32  85 MISG        N/A
NORTON KS      CLEAR     34  23  64 NW13      29.62R
SHARON SPRINGS   N/A     32  25  74 N13         N/A
TRIBUNE KS     PTCLDY    36  28  75 E10       29.63R
KIT CARSON CO    N/A     32  26  79 MISG        N/A
YUMA CO          N/A     29  25  85 NE20G26     N/A  WCI  16
$$


USA.gov is the U.S. government's official web portal to all federal, state and local government web resources and services.